Home   Weather   Shawneetown   Past weeks
Flag for USA

Past Weather in Shawneetown, USA — February 2018

Now
50 °F

Clear.


Feels Like: 48 °F
Forecast: 75 / 47 °F
Wind: 5 mph from Northeast

Location: Evansville Regional Airport
Current Time: Sep 20, 2020 at 6:16:46 am
Latest Report: Sep 20, 2020 at 4:54 am
Visibility: 10 mi
Pressure30.30 "Hg
Humidity: 77%
Dew Point: 43 °F
Location of ShawneetownLocation

February 2018 Weather in Shawneetown — Graph

°F

High & Low Weather Summary for February 2018

 TemperatureHumidityPressure
High76 °F (Feb 20, 1:54 pm)100% (Feb 1, 1:28 pm)30.66 "Hg (Feb 1, 1:28 pm)
Low12 °F (Feb 2, 6:54 am)24% (Feb 26, 4:54 pm)29.65 "Hg (Feb 24, 8:54 pm)
Average42 °F83%30.19 "Hg
* Reported Feb 1 12:54 am — Feb 28 11:54 pm, Shawneetown. Weather by CustomWeather, © 2020

Note: Actual official high and low records may vary slightly from our data, if they occured in-between our weather recording intervals... More about our weather records

Shawneetown Weather History for February 1, 2018

Scroll right to see more
 ConditionsComfort  
Time TempWeatherWind HumidityBarometerVisibility
12:54 am
Thu, Feb 1
41 °FClear.7 mph70%29.92 "Hg10 mi
1:54 am39 °FClear.7 mph73%29.94 "Hg10 mi
2:54 am40 °FClear.7 mph73%29.92 "Hg10 mi
3:54 am42 °FClear.No wind68%29.91 "Hg10 mi
4:54 am42 °FClear.6 mph68%29.93 "Hg10 mi
5:54 am43 °FSunny.8 mph68%29.96 "Hg10 mi
6:54 am43 °FPartly sunny.8 mph71%29.98 "Hg10 mi
7:54 am42 °FOvercast.6 mph71%30.01 "Hg10 mi
8:54 am43 °FOvercast.16 mph60%30.03 "Hg10 mi
9:54 am42 °FOvercast.14 mph65%30.05 "Hg10 mi
10:54 am42 °FOvercast.13 mph65%30.06 "Hg10 mi
11:33 am42 °FLight rain. Overcast.9 mph68%30.09 "Hg10 mi
11:54 am39 °FLight rain. Mostly cloudy.13 mph76%30.11 "Hg5 mi
12:32 pm35 °FLight snow. Fog.10 mph96%30.12 "Hg2 mi
1:01 pm34 °FSnow. Fog.7 mph97%30.12 "Hg2 mi
1:08 pm34 °FSnow. Fog.7 mph97%30.12 "Hg1 mi
1:28 pm33 °FSnow. Fog.13 mph100%30.12 "Hg1 mi
1:54 pm32 °FSnow. Ice fog.15 mph100%30.15 "Hg1 mi
2:54 pm27 °FSnow. Ice fog.12 mph96%30.19 "Hg1 mi
3:19 pm27 °FSnow. Ice fog.9 mph89%30.18 "Hg1 mi
3:29 pm28 °FIce fog.7 mph85%30.18 "Hg5 mi
3:54 pm28 °FOvercast.13 mph72%30.22 "Hg10 mi
4:54 pm28 °FOvercast.6 mph72%30.25 "Hg10 mi
5:54 pm27 °FClear.8 mph63%30.29 "Hg10 mi
6:54 pm26 °FClear.9 mph60%30.33 "Hg10 mi
7:54 pm23 °FClear.10 mph63%30.37 "Hg10 mi
8:54 pm22 °FClear.8 mph60%30.40 "Hg10 mi
9:54 pm22 °FClear.8 mph60%30.42 "Hg10 mi
10:54 pm20 °FClear.8 mph62%30.44 "Hg10 mi
11:54 pm19 °FClear.10 mph59%30.47 "Hg10 mi
Weather by CustomWeather, © 2020

See weather overview